Retour au catalogue

FENGYUN 1C DEB

ActifPO
NORAD 36647·DEBRIS·🇨🇳 China

Lancé May 10, 1999 depuis Taiyuan Satellite Launch Center

Loading…

Prochains Passages (prochaines 24 heures)

TLE

FraisSource: Space-Track

Époque: Sep 11, 2026, 09:58 UTC

1 36647U 99025DXR 26254.41541391  .00002318  00000-0  14956-2 0  9999
2 36647  96.1252 307.4463 0235530 223.0697 135.1829 13.90802813342000

Suivez FENGYUN 1C DEB en temps réel avec AllMySat

Download on the App Store